Regional Weather Roundup
Issued by NWS

Home | Current Version | Previous Version | Text Only | Print | Product List | Glossary On
Versions: 1 2 3 4 5 6 7 8 9 10 11 12 13 14 15 16 17 18 19 20 21 22 23 24 25 26 27 28 29 30 31 32 33 34 35 36 37 38 39 40 41 42 43 44 45 46 47 48 49 50
000
ASCA44 KEWX 231520
RWRMX

LATIN AMERICA AND CARIBBEAN REGIONAL WEATHER ROUNDUP
NATIONAL WEATHER SERVICE AUSTIN/SAN ANTONIO TX
1000 AM CDT TUE SEP 23 2014

NOTE: "FAIR" INDICATED FEW OR NO CLOUDS BELOW 12,000 FEET WITH NO
SIGNIFICANT WEATHER AND/OR OBSTRUCTIONS TO VISIBILITY.

BAJA CALIFORNIA

CITY           SKY/WX    TMP DP  RH WIND       PRES   REMARKS

NORTHWESTERN MEXICO

CITY           SKY/WX    TMP DP  RH WIND       PRES   REMARKS
CULIACAN       PTSUNNY   82  77  83 CALM      29.89  HX  91
DURANGO        CLOUDY    64  57  77 N6        30.32
GUAYMAS        SUNNY     86  79  79 CALM      29.83  HX  99
HERMOSILLO       N/A    N/A N/A N/A CALM        N/A
CD. JUAREZ     PTSUNNY   68  61  77 CALM      30.14
OBREGON        MOSUNNY   82  73  74 E6        29.85

NORTHEASTERN MEXICO

CITY           SKY/WX    TMP DP  RH WIND       PRES   REMARKS
CHIHUAHUA      CLOUDY    66  66 100 CALM      30.25
MATAMOROS      MOSUNNY   79  75  89 NW6       30.05
MONCLOVA         N/A    N/A N/A N/A MISG        N/A
MONTERREY      PTSUNNY   75  70  83 NW5       30.12R
NUEVO LAREDO   PTSUNNY   81  70  69 CALM      30.10
PIEDRAS NEGRAS MOSUNNY   81  66  61 SE7       30.13R
REYNOSA        MOSUNNY   81  73  78 NW8       30.06
SALTILLO       PTSUNNY   68  54  60 CALM      30.28F
TORREON        PTSUNNY   70  55  60 CALM      30.20
CD. VICTORIA   DRIZZLE   70  70 100 NW3       30.09

WESTERN MEXICO

CITY           SKY/WX    TMP DP  RH WIND       PRES   REMARKS
AGUASCALIENTES MOSUNNY   64  57  77 N10       30.30
COLIMA         MOSUNNY   79  68  69 CALM      29.99R
DEL BAJIO      PTSUNNY   68  61  77 CALM      30.30S
GUADALAJARA    PTSUNNY   68  63  83 CALM      30.20
MANZANILLO     MOSUNNY   82  75  78 CALM      29.84R
P. VALLARTA    CLOUDY    81  75  83 CALM      29.86R
URUAPAN        PTSUNNY   68  61  77 CALM      30.18R
ZACATECAS        N/A    N/A N/A N/A MISG        N/A

CENTRAL MEXICO

CITY           SKY/WX    TMP DP  RH WIND       PRES   REMARKS
CUERNAVACA     PTSUNNY   73  59  60 CALM      30.15R
MEXICO CITY    PTSUNNY   63  50  63 N7        30.35R
MORELIA        PTSUNNY   63  61  94 CALM      30.26
POZA RICA      PTSUNNY   79  73  83 NW9       30.02R
PUEBLA         PTSUNNY   59  50  72 N9        30.37R
QUERETARO      CLOUDY    64  57  77 E9        30.35R
S. LUIS POTOSI CLOUDY    63  57  82 E7        30.31
TAMPICO        PTSUNNY   77  73  88 CALM      30.00R
TOLUCA         PTSUNNY   59  48  67 N6        30.40

SOUTHERN MEXICO

CITY           SKY/WX    TMP DP  RH WIND       PRES   REMARKS
ACAPULCO       PTSUNNY   82  73  74 NE6       29.90R
B. DE HUATULCO MOSUNNY   81  72  74 CALM      29.94
OAXACA         PTSUNNY   64  59  82 CALM      30.26R
P. ESCONDIDO   PTSUNNY   81  70  69 E9        30.02S
VERACRUZ       PTSUNNY   79  73  83 NW3       29.96R
ZIHUATANEJO    MOSUNNY   82  73  74 CALM      29.88

YUCATAN PENINSULA

CITY           SKY/WX    TMP DP  RH WIND       PRES   REMARKS
CAMPECHE       MOSUNNY   82  75  78 CALM      29.94R
CANCUN         PTSUNNY   86  75  70 NE6       29.98R HX  95
CHETUMAL       CLOUDY    75  75 100 CALM      29.97R
CD. DEL CARMEN MOSUNNY   82  73  74 E12       29.94
COZUMEL        MOSUNNY   77  77 100 N6        29.98R
MERIDA         MOSUNNY   81  72  74 CALM      29.97R
MINATITLAN     MOSUNNY   79  70  73 W12       29.91
TAPACHULA      SUNNY     84  75  74 CALM      29.89S HX  92
TUX. GUTIERREZ PTSUNNY   75  72  88 W2        29.99R
VILLAHERMOSA   MOSUNNY   79  75  89 CALM      29.96R

CENTRAL AMERICA

CITY           SKY/WX    TMP DP  RH WIND       PRES   REMARKS
BELIZE CITY    LGT RAIN  79  77  94 N7        29.95
MANAGUA        MOSUNNY   82  75  78 SE5       29.86S

CARIBBEAN

CITY           SKY/WX    TMP DP  RH WIND       PRES   REMARKS
ARUBA          MOSUNNY   86  77  74 SE16      29.89S HX  97
KINGSTON       PTSUNNY   88  73  62 NW3       29.94R HX  96
NASSAU         PTSUNNY   86  79  79 SW5       30.04S HX  99
SAN JUAN       MOSUNNY   86  79  79 E13       29.97S HX  99
SANTO DOMINGO  MOSUNNY   84  77  79 SE9       29.94S HX  94
ST. CROIX      MOSUNNY   88  75  66 E15       29.99S HX  97
ST. KITTS      MOSUNNY   88  77  70 E9        29.97S HX 100
ST. MAARTEN    MOSUNNY   88  73  62 E8        29.97S HX  96

$$



USA.gov is the U.S. government's official web portal to all federal, state and local government web resources and services.